{"data":{"norad_id":22826,"epoch":"2026-09-20T02:47:50.879040Z","epoch_age_seconds":44385,"freshness":"FRESH","line1":"1 22826U 93061D   26263.11656110  .00000033  00000+0  29246-4 0  9991","line2":"2 22826  98.6736 330.3794 0009321 158.3201 201.8378 14.31391062720890","mean_motion":14.31391062,"eccentricity":0.0009321,"inclination_deg":98.6736,"raan_deg":330.3794,"arg_perigee_deg":158.3201,"mean_anomaly_deg":201.8378,"bstar":2.9246e-5,"rev_number":72089,"period_min":100.60143857458,"perigee_km":780.4061309443,"apogee_km":793.76353748765,"semimajor_km":7165.221834216,"source":"CELESTRAK","updated_at":"2026-09-20T09:00:45.227239Z"}}